BRO-21

导读

BRO-21(NORAD编号69007)是由法国航天初创公司Unseenlabs开发的射频监测卫星,于2026年5月3日搭乘SpaceX猎鹰9号火箭,从美国范登堡太空军基地发射升空。这是一次拼车发射任务,BRO-21与韩国CAS500-2成像卫星等45个载荷共同进入太阳同步轨道。该卫星主要用于射频信号监测,可支持海上监视、非法船舶活动识别等应用,是Unseenlabs持续拓展空间态势感知能力的一部分。目前卫星已进入预定轨道,处于在轨运行状态。

基本信息
目录编号:
69007
目录名称:
BRO-21
国际标识:
2026-100AD
轨道中心:
EARTH
卫星名称:
BRO-21
卫星全名:
BRO-21
卫星状态:
在轨 (已飞行132 天)
发射日期:
2026-05-03 UTC
国别 :
法国 (FR)
星等 :
--
该卫星已列入 空间交会检测服务 Space Conjunction Data Service (SCDS) ,当前飞行风险评估等级: 无高风险
轨道信息
数据来源 国际轨道数据
星历时间: 2026-09-11T23:55:48+0800
18小时前
查看轨道信息
半长轴: 6878.327km
偏心率: 0.0009473
轨道倾角: 97.392°
近地点辐角 107.716°
升交点赤经 151.112°
平近点角 252.511°
近地点: 493.674km
远地点: 506.706km
周期: 94.620分钟
每日圈数: 15.218737
详细信息
使用方式:
暂无
2D轨道图
3D轨道图
轨道高度分析图
轨道倾角分析图
轨道综合分析图
查看轨道综合分析图
交会数据列表
事件ID 空间交会对象 最接近时刻(TCA) 交会距离 交会风险概率(CRP) 交会风险指数(CRI) 操作
CDM_260914-135605-213106-900722
BRO-21 (69007)
2026-09-14T
13:56:18+0000
1.132 km
极远距离
1.671429E-5 中风险 0.59
CDM_260913-082205-268206-900721
BRO-21 (69007)
2026-09-13T
08:22:47+0000
1.206 km
极远距离
1.334646E-5 中风险 0.58
CDM_260913-122304-377806-900724
BRO-21 (69007)
2026-09-13T
12:23:40+0000
1.688 km
极远距离
4.576178E-6 低风险 0.48
CDM_260913-015506-671306-900725
BRO-21 (69007)
2026-09-13T
01:55:39+0000
2.423 km
极远距离
1.882326E-6 低风险 0.4
CDM_260914-131905-951006-900721
BRO-21 (69007)
2026-09-14T
13:19:18+0000
2.792 km
极远距离
1.487045E-6 低风险 0.38
CDM_260914-114405-951006-900721
BRO-21 (69007)
2026-09-14T
11:44:38+0000
2.805 km
极远距离
1.477502E-6 低风险 0.38
CDM_260914-145305-951006-900721
BRO-21 (69007)
2026-09-14T
14:53:59+0000
2.833 km
极远距离
1.457305E-6 低风险 0.38
CDM_260914-100905-951006-900721
BRO-21 (69007)
2026-09-14T
10:09:57+0000
2.870 km
极远距离
1.432147E-6 低风险 0.38
CDM_260914-162805-951006-900721
BRO-21 (69007)
2026-09-14T
16:28:39+0000
2.926 km
极远距离
1.396704E-6 低风险 0.38
CDM_260914-083505-951006-900722
BRO-21 (69007)
2026-09-14T
08:35:16+0000
2.983 km
极远距离
1.364041E-6 低风险 0.38
与全量物体交会距离演化趋势
与全量物体交会风险概率演化趋势